User: anonymous   Login
Location: Medlow Airstrip Trail, Medlow Bath NSW 2780, Australia
(33.6682°S, 150.3233°E)
Time: 08:38:02
(UTC+10:00)
Language:

Tiros 1 - Orbit

View from above orbital plane
View from above orbital plane
View from above satellite
View from above satellite

Ground track
Ground track

The orbit data is extracted from the following two-line orbital elements,

1    29U 60002B   19263.10577577 -.00000126  00000-0  12244-4 0  9996
2    29  48.3793 149.1558 0023733 152.5357 207.6814 14.74318179178623
Epoch (UTC): 20 September 2019 02:32:19
Eccentricity: 0.0023733
inclination: 48.3793°
perigee height: 630 km
apogee height: 664 km
right ascension of ascending node: 149.1558°
argument of perigee: 152.5357°
revolutions per day: 14.74318179
mean anomaly at epoch: 207.6814°
orbit number at epoch: 17862

The dashed part of the orbit path shows where the satellite is in the earth's shadow,  

DLR